Weather History for Wooster, OH

Change the Weather History Date:

Monday, July 15, 2013

  Actual Average Record
Temperature  
Mean Temperature 78 °F -  
Max Temperature 89 °F 79 °F 89 °F (2002)
Min Temperature 68 °F 57 °F 51 °F (2001)
Cooling Degree Days 13    
Growing Degree Days 28 (Base 50)    
Moisture  
Dew Point 70 °F    
Average Humidity 76    
Maximum Humidity 94    
Minimum Humidity 53    
Precipitation  
Precipitation 0.00 in - - ()
Sea Level Pressure  
Sea Level Pressure 30.30 in    
Wind  
Wind Speed 2 mph (SW)    
Max Wind Speed 6 mph    
Max Gust Speed -    
Visibility 10 miles    
Events      
Averages and records for this station are not official NWS values.
T = Trace of Precipitation, MM = Missing Value Source: NWS Daily Summary

Daily Weather History Graph

Daily Weather History Graph

Search for Another Location

Airport:

Trip Planner

Search our weather history database for the weather conditions in past years. The results will help you decide how hot, cold, wet, or windy it might be!

Date:

Astronomy

Jul. 15, 2013 Rise Set
Actual Time 6:08 AM EDT 8:57 PM EDT
Civil Twilight 5:36 AM EDT 9:30 PM EDT
Nautical Twilight 4:55 AM EDT 10:10 PM EDT
Astronomical Twilight 4:08 AM EDT 10:57 PM EDT
Moon 1:30 PM EDT (7/15) 12:06 AM EDT (7/15)
Length of Visible Light 15h 53m
Length of Day
14h 48m
Waxing Crescent, 45% of the Moon is Illuminated
Jul 15
Waxing Crescent
Jul 15
First Quarter
Jul 22
Full
Jul 29
Last Quarter
Aug 6
New

Hourly Weather History & Observations

Time (EDT) Temp. Heat Index Dew Point Humidity Pressure Visibility Wind Dir Wind Speed Gust Speed Precip Events Conditions
12:56 AM 73.0 °F - 69.1 °F 87% 30.28 in 10.0 mi South 3.5 mph - N/A   Clear
1:56 AM 73.9 °F - 70.0 °F 87% 30.28 in 10.0 mi SSW 5.8 mph - N/A   Clear
2:56 AM 73.0 °F - 69.1 °F 87% 30.28 in 10.0 mi Calm Calm - N/A   Clear
3:56 AM 70.0 °F - 68.0 °F 93% 30.29 in 10.0 mi Calm Calm - N/A   Clear
4:56 AM 69.1 °F - 66.9 °F 93% 30.29 in 10.0 mi Calm Calm - N/A   Clear
5:56 AM 68.0 °F - 66.0 °F 93% 30.30 in 10.0 mi Calm Calm - N/A   Clear
6:56 AM 69.1 °F - 66.9 °F 93% 30.32 in 7.0 mi Calm Calm - N/A   Clear
7:56 AM 73.9 °F - 70.0 °F 87% 30.33 in 10.0 mi Calm Calm - N/A   Clear
8:56 AM 77.0 °F - 69.1 °F 76% 30.34 in 10.0 mi SW 4.6 mph - N/A   Scattered Clouds
9:56 AM 80.1 °F 83.2 °F 70.0 °F 71% 30.34 in 10.0 mi WSW 4.6 mph - N/A   Partly Cloudy
10:56 AM 82.0 °F 86.3 °F 71.1 °F 69% 30.34 in 10.0 mi SW 3.5 mph - N/A   Clear
11:56 AM 82.9 °F 87.0 °F 70.0 °F 65% 30.34 in 10.0 mi Calm Calm - N/A   Overcast
12:56 PM 86.0 °F 90.1 °F 69.1 °F 57% 30.33 in 10.0 mi Calm Calm - N/A   Partly Cloudy
1:56 PM 88.0 °F 92.1 °F 69.1 °F 53% 30.31 in 10.0 mi SW 3.5 mph - N/A   Clear
2:56 PM 87.1 °F 92.8 °F 71.1 °F 59% 30.30 in 10.0 mi Variable 4.6 mph - N/A   Partly Cloudy
3:56 PM 88.0 °F 92.9 °F 70.0 °F 55% 30.29 in 10.0 mi Calm Calm - N/A   Clear
4:56 PM 87.1 °F 92.8 °F 71.1 °F 59% 30.28 in 10.0 mi SSE 4.6 mph - N/A   Clear
5:56 PM 84.0 °F 89.6 °F 72.0 °F 67% 30.28 in 10.0 mi SSW 3.5 mph - N/A   Clear
6:56 PM 87.1 °F 92.8 °F 71.1 °F 59% 30.27 in 10.0 mi SW 3.5 mph - N/A   Scattered Clouds
7:56 PM 84.9 °F 91.4 °F 73.0 °F 67% 30.27 in 10.0 mi West 3.5 mph - N/A   Clear
8:56 PM 81.0 °F 86.2 °F 73.9 °F 79% 30.27 in 10.0 mi Calm Calm - N/A   Clear
9:56 PM 77.0 °F - 73.0 °F 88% 30.28 in 10.0 mi Calm Calm - N/A   Clear
10:56 PM 75.0 °F - 73.0 °F 94% 30.30 in 10.0 mi Calm Calm - N/A   Clear
11:56 PM 73.9 °F - 72.0 °F 93% 30.30 in 10.0 mi Calm Calm - N/A   Clear